Dewpoint
64 65 63 64 65 65 64 64 64 66 67 65 64 65 66 65 65 64 63 62 62 62 61 60 59 56 55 54 52 52 50 51
63 63 61 61 62 61 60 59 58 59 66 65 65 65 65 65 64 64 63 62 62 61 61 59 58 56 54 50 52 52 49 50
63 62 61 62 62 62 61 58 60 57 66 65 66 64 64 64 63 63 63 62 62 61 60 58 56 54 52 54 54 50 50 52
63 63 62 61 62 61 61 60 59 58 64 65 64 64 64 63 64 63 62 62 61 60 59 56 52 52 52 52 51 51 51 53
61 62 61 61 63 61 62 60 60 60 64 64 64 63 63 64 64 62 61 60 59 59 56 51 48 48 50 51 52 51 51 53
61 61 61 60 62 60 62 62 61 62 64 64 63 62 63 64 63 60 58 56 56 55 52 51 48 48 50 53 49 51 53 54
61 61 62 62 61 61 63 62 60 60 63 64 62 61 63 63 62 61 55 55 55 53 52 54 52 49 51 50 50 52 53 53
60 61 62 63 62 61 61 62 59 62 64 63 62 61 63 62 61 60 57 56 55 53 52 54 54 51 51 51 50 50 52 53
58 60 61 61 61 62 62 63 61 63 63 62 62 62 62 60 59 60 58 56 56 54 54 54 52 50 50 51 50 50 52 52
58 59 59 60 61 62 63 63 63 62 61 63 62 62 61 58 58 57 57 57 57 55 55 53 51 49 49 49 49 49 51 52
58 59 59 60 60 61 63 62 62 63 61 62 62 61 60 58 57 58 58 56 56 56 54 51 48 47 46 46 47 48 50 49
58 58 59 59 60 60 61 62 62 63 61 61 61 61 59 57 56 57 58 57 56 55 52 50 47 46 40 43 45 45 47 50
57 58 58 58 58 58 59 58 60 62 62 60 60 60 58 56 54 54 54 56 55 54 52 48 47 49 45 45 45 45 47 48
56 58 58 58 58 58 58 58 59 60 62 60 60 59 58 54 54 54 53 53 54 52 50 49 50 49 46 44 43 43 44 45
56 56 58 58 58 58 58 59 59 59 60 60 59 58 57 55 54 55 53 52 53 51 52 50 50 49 47 46 43 41 43 45
55 56 57 57 57 57 57 57 56 58 59 59 59 58 57 57 57 56 55 54 53 53 53 52 50 47 48 48 48 49 46 42
55 56 57 56 57 57 57 56 57 58 58 57 57 57 56 56 57 56 55 54 54 54 54 52 53 50 48 47 47 48 49 47
55 55 55 57 57 57 56 56 56 56 56 56 56 56 56 56 55 56 56 55 55 55 54 53 54 53 50 49 48 47 46 47
55 54 54 56 56 57 56 56 56 56 56 56 55 55 55 55 55 57 57 56 55 54 56 55 55 54 53 53 52 50 50 49
54 54 53 55 56 56 56 55 56 56 56 56 55 55 54 55 55 56 56 54 54 56 56 56 56 56 54 53 53 53 54 53
Wind_Speed
4 4 5 9 9 7 7 13 6 26 34 35 33 30 35 28 24 26 28 26 27 25 22 19 14 11 5 3 4 6 22 20
2 4 5 1 4 10 15 23 14 32 29 37 36 31 29 29 28 27 27 26 26 25 22 19 13 9 4 3 4 8 21 19
7 8 10 4 4 11 19 26 29 35 35 36 30 28 28 30 25 30 27 26 26 25 22 19 15 10 6 3 6 7 19 19
8 10 10 3 3 6 10 16 15 35 26 34 29 29 26 24 26 28 27 24 24 24 22 21 14 8 4 2 5 11 19 20
9 7 7 9 6 6 7 11 18 40 35 34 31 25 24 24 22 20 21 22 19 18 20 14 13 11 8 7 8 12 18 18
7 8 12 11 9 13 12 13 5 10 30 35 29 23 22 23 21 19 20 17 20 17 15 15 17 14 12 10 8 12 18 17
7 6 13 13 13 14 13 13 17 10 14 21 22 23 22 23 21 20 18 18 17 17 16 15 17 15 10 10 7 18 20 17
9 8 8 11 15 14 17 16 19 15 13 18 21 21 19 22 22 20 19 19 17 17 16 15 14 14 13 11 6 14 19 20
8 9 7 7 5 10 12 16 20 20 23 10 17 19 19 22 21 20 19 20 18 17 17 15 13 14 12 10 8 11 19 21
7 6 3 6 8 10 13 15 17 17 18 20 20 16 20 20 21 21 21 21 19 18 14 16 14 13 13 11 10 8 10 20
7 7 6 5 6 4 9 15 17 18 19 17 19 22 10 15 20 17 21 22 19 17 16 16 15 13 13 11 9 11 11 9
9 9 7 5 6 4 5 8 13 19 22 20 22 20 17 14 15 11 19 19 18 17 18 15 16 13 14 13 9 9 10 9
11 11 9 8 7 9 12 14 14 15 21 27 25 23 20 16 16 12 12 16 7 17 14 15 15 11 10 14 7 4 10 8
13 12 11 9 8 5 4 8 16 18 15 28 29 27 25 18 16 14 10 12 15 14 14 9 11 11 8 11 7 3 7 9
14 13 11 8 8 6 1 9 14 20 23 25 34 30 25 18 12 15 12 14 12 15 15 16 10 7 4 5 7 8 10 10
15 13 13 10 10 8 2 2 11 8 26 22 24 30 24 18 14 15 12 10 13 14 13 11 11 12 5 11 4 2 2 4
14 16 14 12 11 11 7 9 12 17 15 24 26 24 25 18 15 17 17 17 17 14 10 15 12 14 14 6 9 5 4 5
14 15 15 15 11 14 10 13 14 18 19 18 18 21 23 17 16 14 15 15 16 17 20 14 14 13 14 13 11 6 12 11
18 16 15 15 14 13 15 16 17 20 21 20 20 19 19 20 23 17 14 16 21 19 10 15 15 14 13 13 12 14 10 11
20 19 18 18 16 16 15 17 15 16 20 20 21 21 23 24 25 19 19 24 19 17 25 18 18 17 17 16 15 17 14 15
Wind_Direction
229 155 208 222 221 224 191 157 204 200 168 150 147 165 160 150 147 139 132 130 133 129 127 133 140 146 123 42 33 31 101 103
251 160 209 248 248 206 191 218 224 254 190 153 160 164 153 143 141 134 133 133 131 130 132 135 142 142 131 120 29 78 111 111
180 190 221 221 281 243 205 213 198 205 190 152 150 162 150 142 143 137 137 139 135 134 130 132 141 146 157 341 330 137 106 106
207 185 229 182 240 196 186 186 179 216 183 148 160 163 150 147 139 138 136 138 133 133 133 138 139 150 180 247 277 114 110 112
183 183 181 168 166 115 129 189 219 221 169 155 174 162 151 135 139 137 136 137 135 135 135 148 145 160 179 215 241 112 115 119
175 174 168 168 166 163 176 172 98 74 153 160 160 151 147 142 147 148 149 155 147 147 160 163 164 179 188 150 179 115 117 125
157 206 173 185 197 173 180 151 143 205 157 175 158 149 148 147 151 155 160 155 157 160 175 173 173 168 183 147 213 115 127 133
163 210 188 179 194 184 178 158 162 169 178 171 158 152 152 152 155 159 167 156 163 170 181 166 166 166 140 170 178 127 134 140
172 184 165 160 156 164 155 154 171 170 159 163 165 152 160 159 159 161 174 159 166 179 187 151 153 150 165 168 163 158 148 144
187 104 164 153 146 154 156 160 162 165 170 168 161 174 165 164 161 167 174 166 173 182 166 150 162 161 163 168 163 164 147 152
146 159 192 163 129 92 153 171 172 167 172 171 167 176 179 164 168 182 169 170 172 170 151 157 154 168 159 170 170 175 161 186
179 186 179 131 113 189 218 181 189 178 176 172 159 161 178 151 142 170 152 163 162 149 150 160 164 176 170 160 176 175 170 193
193 180 162 166 160 194 207 209 204 189 175 172 164 167 161 164 147 141 144 140 175 143 141 163 169 191 150 143 168 167 173 198
193 186 175 180 181 158 186 198 205 201 182 173 168 166 162 165 152 156 130 121 141 142 151 176 173 177 162 137 163 176 240 226
195 188 171 170 145 142 149 182 194 191 193 180 167 162 159 153 155 151 149 136 175 165 174 181 167 152 179 158 173 211 188 199
192 186 170 179 172 157 97 83 125 121 179 159 153 156 153 150 138 148 163 165 176 173 183 179 153 170 211 255 266 305 187 146
192 172 170 182 175 158 142 90 96 103 113 134 147 154 155 154 154 165 192 199 172 163 192 192 163 176 189 196 233 229 226 225
176 171 179 178 182 154 155 128 121 119 121 123 142 149 158 159 171 194 202 187 175 182 201 197 202 194 189 201 179 178 220 217
166 180 175 176 176 158 151 151 149 140 141 142 145 151 160 176 185 201 188 199 206 201 190 192 208 199 210 223 220 219 221 210
174 183 175 179 179 161 155 156 157 160 156 158 157 172 177 181 193 199 206 206 192 184 221 202 202 209 211 220 240 248 244 233